Location: Bednik
(45.3500°N, 16.3833°E)
Time: 16:18:14
(UTC+00:00)

Spot 2 Rocket - Pass Details

Date: 08 August 2020
Orbit: 756 x 773 km, 98.6° (Epoch: 18 September)

Event Time Altitude Azimuth Distance (km) Brightness Sun altitude
Exits shadow 20:11:23 24° 177° (S) 1,575 4.7 -17.9°
Maximum altitude 20:14:33 72° 257° (WSW) 815 3.7 -18.3°
Drops below altitude 10° 20:19:40 10° 342° (NNW) 2,322 7.0 -18.9°
Sets 20:22:00 0° 345° (NNW) 3,251 7.9 -19.1°
